星链-4125 (STARLINK-4125 )

导读 | 星芒AI

STARLINK-4125 是 SpaceX Starlink 项目中的一颗低轨道通信卫星,属于该星座的众多卫星之一,旨在为全球用户提供高速互联网服务。该卫星采用先进的推进和通信技术,具备自主变轨和避障能力,以确保运行安全。它运行在约 550 公里的近地轨道,通过高频段通信提升数据传输效率。作为 Starlink 计划的一部分,STARLINK-4125 有助于扩大卫星互联网覆盖范围,特别是在偏远和网络基础设施薄弱的地区。

基本信息
目录编号:
53244
目录名称:
STARLINK-4125
国际标识:
2022-086C
轨道中心:
EARTH
卫星名称:
星链-4125
卫星全名:
星链-4125 (STARLINK-4125 )
卫星状态:
在轨 (已飞行1246 天)
发射日期:
2022-07-24 UTC
国别 :
美国 (US)
星等 :
--
轨道信息
数据来源 国际轨道数据 AOE轨道数据
星历时间 2025-12-21T03:25:35+0800
9小时前
查看轨道信息
2025-12-20T20:00:00+0800
17小时前
查看轨道信息
半长轴 6917.9km 6917.885km
偏心率 0.0001558 0.0001486
轨道倾角 53.216° 53.215°
近地点辐角 84.830° 91.849°
升交点赤经 198.305° 199.700°
平近点角 275.287° 26.585°
近地点 538.685km 538.72km
远地点 540.841km 540.776km
周期 95.438分钟 95.438分钟
每日圈数 15.088336 15.088387
详细信息
固有亮度:
5
最大亮度:
2.5
卫星平台:
Starlink v1.5
覆盖范围:
全球
运营商:
太空探索技术公司
运营商所在国:
美国
制造商(研发单位):
太空探索技术公司
制造商所在国:
美国
使用方式:
暂无
卫星简介
星链(Starlink)计划是由太空探索技术公司(SpaceX)提出的一个巨型低轨卫星互联网星座项目,计划在2019年至2024年间在太空搭建由约1.2万颗卫星组成的“星链”网络,其中1584颗将部署在地球上空550千米处的近地轨道,并从2020年开始工作。该卫星仍在工作。
2D轨道图
3D轨道图
轨道高度分析图
轨道倾角分析图
轨道综合分析图
查看轨道综合分析图